Regional Weather Roundup
Issued by NWS

Home | Current Version | Previous Version | Text Only | Print | Product List | Glossary Off
Versions: 1 2 3 4 5 6 7 8 9 10 11 12 13 14 15 16 17 18 19 20 21 22 23 24 25 26 27 28 29 30 31 32 33 34 35 36 37 38 39 40 41 42 43 44 45 46 47 48 49 50

000
ASUS43 KLMK 201410
RWRKY
KENTUCKY REGIONAL WEATHER ROUNDUP
NATIONAL WEATHER SERVICE LOUISVILLE KY
1000 AM EDT SUN APR 20 2014

NOTE "FAIR" INDICATES FEW OR NO CLOUDS BELOW 12,000 FEET
WITH NO SIGNIFICANT WEATHER AND/OR OBSTRUCTIONS TO VISIBILITY.

KYZ001>023-026-027-061>063-070>075-201500-
WESTERN AND SOUTH CENTRAL KENTUCKY

CITY           SKY/WX    TMP DP  RH WIND       PRES   REMARKS
PADUCAH        SUNNY     66  46  48 SE7       30.22S
HENDERSON      SUNNY     59  41  51 SE6       30.23F
OWENSBORO      SUNNY     60  40  47 SE6       30.24S
HOPKINSVILLE   SUNNY     61  43  51 SE3       30.24S
BOWLING GREEN  SUNNY     58  40  51 E3        30.24F
GLASGOW        SUNNY     59  40  50 CALM      30.24S
$$

KYZ024-025-028>034-038-045-046-053-201500-
NORTH CENTRAL KENTUCKY

CITY           SKY/WX    TMP DP  RH WIND       PRES   REMARKS
LOUISVILLE/SDF MOSUNNY   59  38  45 SE6       30.25F
LOUISVILLE/LOU SUNNY     62  36  37 E5        30.26S
FORT KNOX      SUNNY     60  38  43 NE6       30.23F
$$

KYZ035>037-039>044-047>052-055>060-089>105-201500-
NORTHEAST KENTUCKY

CITY           SKY/WX    TMP DP  RH WIND       PRES   REMARKS
LEXINGTON      SUNNY     63  37  38 SE5       30.26R
COVINGTON      MOSUNNY   59  33  37 SE6       30.27R
FRANKFORT      SUNNY     58  38  47 E6        30.25S
$$

KYZ054-064>069-076>088-106>120-201500-
SOUTHEAST KENTUCKY

CITY           SKY/WX    TMP DP  RH WIND       PRES   REMARKS
JACKSON        SUNNY     60  37  42 SE6       30.26S
LONDON         SUNNY     62  42  47 CALM      30.26R
SOMERSET       SUNNY     59  41  51 CALM      30.26F
MIDDLESBORO    SUNNY     61  42  48 CALM      30.27S
MONTICELLO     SUNNY     64  42  44 SE12      30.26S
$$




USA.gov is the U.S. government's official web portal to all federal, state and local government web resources and services.